Weather History for Dublin, Ireland

Change the Weather History Date:

Wednesday, January 30, 2013

  Actual Average Record
Temperature  
Mean Temperature 44 °F -  
Max Temperature 46 °F 46 °F 51 °F (2000)
Min Temperature 41 °F 36 °F 28 °F (2011)
Degree Days  
Heating Degree Days 22    
Moisture  
Dew Point 38 °F    
Average Humidity 78    
Maximum Humidity 87    
Minimum Humidity 62    
Precipitation  
Precipitation 0.16 in 0.07 in - ()
Sea Level Pressure  
Sea Level Pressure 29.55 in    
Wind  
Wind Speed 20 mph ()    
Max Wind Speed 39 mph    
Max Gust Speed 54 mph    
Visibility 6.8 miles    
Events Rain    
Averages and records for this station are not official NWS values.
T = Trace of Precipitation, MM = Missing Value Source: Averaged Metar Reports

Daily Weather History Graph

Daily Weather History Graph

Search for Another Location

Airport:

Trip Planner

Search our weather history database for the weather conditions in past years. The results will help you decide how hot, cold, wet, or windy it might be!

Date:

Astronomy

Jan. 30, 2013 Rise Set
Actual Time 8:13 AM GMT 5:04 PM GMT
Civil Twilight 7:34 AM GMT 5:42 PM GMT
Nautical Twilight 6:52 AM GMT 6:25 PM GMT
Astronomical Twilight 6:11 AM GMT 7:06 PM GMT
Moon 9:30 PM GMT (1/30) 8:57 AM GMT (1/30)
Length of Visible Light 10h 08m
Length of Day
8h 51m
Waning Gibbous, 89% of the Moon is Illuminated
Jan 30
Waning Gibbous
Feb 3
Last Quarter
Feb 10
New
Feb 17
First Quarter
Feb 25
Full

Hourly Weather History & Observations

Time (GMT) Temp. Windchill Dew Point Humidity Pressure Visibility Wind Dir Wind Speed Gust Speed Precip Events Conditions
12:00 AM 45 °F - 40 °F 78% 29.35 in 19 mi SW 17.9 mph - -   Scattered Clouds
12:00 AM 44.6 °F 37.2 °F 41.0 °F 87% 29.33 in 6.2 mi SW 17.3 mph - N/A   Scattered Clouds
12:30 AM 44.6 °F 37.2 °F 41.0 °F 87% 29.33 in 6.2 mi SW 17.3 mph - N/A   Partly Cloudy
1:00 AM 46.4 °F 39.5 °F 41.0 °F 81% 29.33 in 6.2 mi SSW 17.3 mph 29.9 mph N/A Rain Light Rain Showers
1:30 AM 46.4 °F 39.2 °F 41.0 °F 81% 29.33 in 6.2 mi SW 18.4 mph - N/A   Mostly Cloudy
2:00 AM 46.4 °F 38.5 °F 41.0 °F 81% 29.33 in 6.2 mi SW 21.9 mph - N/A   Mostly Cloudy
2:30 AM 46.4 °F 38.1 °F 41.0 °F 81% 29.36 in 6.2 mi SW 24.2 mph - N/A   Mostly Cloudy
3:00 AM 46.4 °F 38.5 °F 39.2 °F 76% 29.36 in 6.2 mi SW 21.9 mph - N/A   Mostly Cloudy
3:30 AM 44.6 °F 36.9 °F 39.2 °F 81% 29.36 in 6.2 mi SW 18.4 mph - N/A   Mostly Cloudy
4:00 AM 44.6 °F 36.9 °F 39.2 °F 81% 29.39 in 6.2 mi SW 18.4 mph - N/A   Mostly Cloudy
4:30 AM 44.6 °F 36.6 °F 39.2 °F 81% 29.39 in 6.2 mi SW 19.6 mph - N/A Rain Light Rain Showers
5:00 AM 42.8 °F 33.3 °F 37.4 °F 81% 29.39 in 6.2 mi SW 24.2 mph - N/A   Mostly Cloudy
5:30 AM 42.8 °F 34.3 °F 37.4 °F 81% 29.39 in 6.2 mi SW 19.6 mph - N/A   Mostly Cloudy
6:00 AM 43 °F - 38 °F 76% 29.41 in 19 mi SW 20.1 mph - -   Partly Cloudy
6:00 AM 42.8 °F 34.3 °F 37.4 °F 81% 29.39 in 6.2 mi SW 19.6 mph - N/A   Scattered Clouds
6:30 AM 42.8 °F 34.5 °F 37.4 °F 81% 29.39 in 6.2 mi SW 18.4 mph - N/A   Scattered Clouds
7:00 AM 42.8 °F 34.3 °F 37.4 °F 81% 29.39 in 6.2 mi SW 19.6 mph - N/A   Scattered Clouds
7:30 AM 44.6 °F 36.1 °F 37.4 °F 76% 29.39 in 6.2 mi SW 21.9 mph - N/A   Partly Cloudy
8:00 AM 44.6 °F 35.7 °F 35.6 °F 71% 29.39 in 6.2 mi SW 24.2 mph 35.7 mph N/A Rain Light Rain Showers
8:30 AM 42.8 °F 34.3 °F 37.4 °F 81% 29.42 in 6.2 mi SW 19.6 mph - N/A   Scattered Clouds
9:00 AM 44.6 °F 34.9 °F 37.4 °F 76% 29.42 in 6.2 mi SW 28.8 mph 41.4 mph N/A   Scattered Clouds
9:30 AM 44.6 °F 36.1 °F 37.4 °F 76% 29.44 in 6.2 mi WSW 21.9 mph - N/A   Scattered Clouds
10:00 AM 44.6 °F 35.1 °F 35.6 °F 71% 29.44 in 6.2 mi WSW 27.6 mph 39.1 mph N/A Rain Light Rain Showers
10:30 AM 46.4 °F 37.0 °F 33.8 °F 62% 29.44 in 6.2 mi WSW 31.1 mph 47.2 mph N/A Rain Light Rain Showers
11:00 AM 42.8 °F 31.4 °F 37.4 °F 81% 29.47 in 6.2 mi WSW 35.7 mph 48.3 mph N/A Rain Light Rain Showers
11:30 AM 41.0 °F 28.5 °F 37.4 °F 87% 29.50 in 6.2 mi WSW 39.1 mph 54.1 mph N/A Rain Light Rain Showers
11:58 AM 42.8 °F 32.3 °F 37.4 °F 81% 29.53 in 6.2 mi WSW 29.9 mph - N/A Rain Light Rain Showers
12:00 PM 42 °F - 38 °F 80% 29.55 in 9 mi WSW 29.1 mph - - Rain Light Rain Showers
12:30 PM 44.6 °F 34.1 °F 39.2 °F 81% 29.53 in 6.2 mi WSW 34.5 mph 50.6 mph N/A   Mostly Cloudy
1:00 PM 44.6 °F 34.6 °F 39.2 °F 81% 29.56 in 6.2 mi WSW 31.1 mph 47.2 mph N/A Rain Light Rain Showers
1:30 PM 44.6 °F 34.1 °F 39.2 °F 81% 29.56 in 6.2 mi WSW 34.5 mph 48.3 mph N/A Rain Light Rain Showers
2:00 PM 44.6 °F 35.3 °F 39.2 °F 81% 29.59 in 6.2 mi WSW 26.5 mph - N/A Rain Light Rain Showers
2:30 PM 44.6 °F 34.7 °F 41.0 °F 87% 29.62 in 6.2 mi West 29.9 mph 42.6 mph N/A Rain Light Rain Showers
3:00 PM 44.6 °F 36.1 °F 41.0 °F 87% 29.68 in 6.2 mi West 21.9 mph - N/A   Partly Cloudy
3:30 PM 44.6 °F 35.7 °F 39.2 °F 81% 29.71 in 6.2 mi West 24.2 mph - N/A   Scattered Clouds
4:00 PM 44.6 °F 35.7 °F 39.2 °F 81% 29.74 in 6.2 mi West 24.2 mph - N/A   Partly Cloudy
4:30 PM 44.6 °F 35.7 °F 37.4 °F 76% 29.74 in 6.2 mi WSW 24.2 mph - N/A   Partly Cloudy
5:00 PM 44.6 °F 36.9 °F 37.4 °F 76% 29.77 in 6.2 mi WSW 18.4 mph - N/A   Partly Cloudy
5:30 PM 42.8 °F 35.1 °F 37.4 °F 81% 29.77 in 6.2 mi WSW 16.1 mph - N/A   Partly Cloudy
6:00 PM 44 °F - 37 °F 69% 29.81 in 25 mi WSW 20.1 mph - -   Partly Cloudy
6:00 PM 44.6 °F 36.4 °F 37.4 °F 76% 29.80 in 6.2 mi WSW 20.7 mph - N/A   Partly Cloudy
6:30 PM 42.8 °F 35.1 °F 37.4 °F 81% 29.80 in 6.2 mi WSW 16.1 mph - N/A   Partly Cloudy
7:00 PM 42.8 °F 34.3 °F 35.6 °F 76% 29.80 in 6.2 mi SW 19.6 mph - N/A   Mostly Cloudy
7:30 PM 42.8 °F 34.3 °F 35.6 °F 76% 29.77 in 6.2 mi WSW 19.6 mph - N/A   Mostly Cloudy
8:00 PM 42.8 °F 34.5 °F 35.6 °F 76% 29.77 in 6.2 mi SW 18.4 mph - N/A   Mostly Cloudy
8:30 PM 42.8 °F 34.3 °F 35.6 °F 76% 29.80 in 6.2 mi WSW 19.6 mph - N/A   Scattered Clouds
9:00 PM 42.8 °F 34.8 °F 33.8 °F 70% 29.80 in 6.2 mi SW 17.3 mph - N/A   Mostly Cloudy
9:30 PM 42.8 °F 36.6 °F 33.8 °F 70% 29.80 in 6.2 mi SSE 11.5 mph - N/A   Mostly Cloudy
10:00 PM 42.8 °F 36.6 °F 33.8 °F 70% 29.80 in 6.2 mi South 11.5 mph - N/A   Mostly Cloudy
10:30 PM 42.8 °F 36.6 °F 35.6 °F 76% 29.74 in 6.2 mi South 11.5 mph - N/A   Mostly Cloudy
11:00 PM 46.4 °F 41.1 °F 39.2 °F 76% 29.71 in 6.2 mi South 11.5 mph - N/A   Mostly Cloudy
11:30 PM 46.4 °F 39.5 °F 39.2 °F 76% 29.68 in 6.2 mi SSW 17.3 mph - N/A   Mostly Cloudy